| time (UTC) | temp C | wind direction | speed KPH | gust KPH | rain 1hr cm | rain 24hr cm | rain mn cm | humidity % | barometer mb |
| 20260904013031 | 14 | 155 | 0.0 | 0.0 | 0.00 | 0.00 | 0.00 | 43 | 1003.2 |
| 20260904011529 | 15 | 184 | 1.6 | 0.0 | 0.00 | 0.00 | 0.00 | 42 | 1003.4 |
| 20260904010021 | 15 | 189 | 1.6 | 0.0 | 0.00 | 0.00 | 0.00 | 39 | 1003.2 |
| 20260904004517 | 16 | 216 | 3.2 | 0.0 | 0.00 | 0.00 | 0.00 | 33 | 1003.2 |
| 20260904003012 | 17 | 174 | 1.6 | 0.0 | 0.00 | 0.00 | 0.00 | 31 | 1002.8 |
| 20260904001507 | 17 | 167 | 3.2 | 0.0 | 0.00 | 0.00 | 0.00 | 31 | 1002.4 |
| 20260904000003 | 18 | 124 | 1.6 | 0.0 | 0.00 | 0.00 | 0.00 | 28 | 1002.6 |
| 20260903234559 | 18 | 196 | 3.2 | 0.0 | 0.00 | 0.00 | 0.00 | 25 | 1002.2 |
| 20260903233056 | 19 | 162 | 1.6 | 0.0 | 0.00 | 0.00 | 0.00 | 23 | 1002.2 |
| 20260903231559 | 19 | 195 | 3.2 | 0.0 | 0.00 | 0.00 | 0.00 | 23 | 1002.1 |
| 20260903230051 | 19 | 208 | 1.6 | 0.0 | 0.00 | 0.00 | 0.00 | 22 | 1002.8 |
| 20260903224547 | 19 | 219 | 3.2 | 0.0 | 0.00 | 0.00 | 0.00 | 23 | 1002.4 |
| 20260903223037 | 19 | 124 | 1.6 | 0.0 | 0.00 | 0.00 | 0.00 | 23 | 1002.7 |
| 20260903221533 | 19 | 224 | 1.6 | 0.0 | 0.00 | 0.00 | 0.00 | 23 | 1002.5 |
| 20260903220029 | 19 | 234 | 3.2 | 0.0 | 0.00 | 0.00 | 0.00 | 23 | 1002.5 |
| 20260903214533 | 20 | 143 | 1.6 | 0.0 | 0.00 | 0.00 | 0.00 | 21 | 1002.9 |
| 20260903213032 | 19 | 131 | 1.6 | 0.0 | 0.00 | 0.00 | 0.00 | 22 | 1003.0 |
| 20260903211515 | 20 | 200 | 1.6 | 0.0 | 0.00 | 0.00 | 0.00 | 21 | 1002.9 |
| 20260903210011 | 20 | 193 | 1.6 | 0.0 | 0.00 | 0.00 | 0.00 | 21 | 1003.3 |
| 20260903204507 | 20 | 152 | 1.6 | 0.0 | 0.00 | 0.00 | 0.00 | 22 | 1003.4 |
| 20260903203003 | 19 | 229 | 1.6 | 0.0 | 0.00 | 0.00 | 0.00 | 23 | 1003.7 |
| 20260903201600 | 18 | 205 | 1.6 | 0.0 | 0.00 | 0.00 | 0.00 | 22 | 1004.0 |
| 20260903200053 | 18 | 244 | 1.6 | 0.0 | 0.00 | 0.00 | 0.00 | 24 | 1003.3 |
| 20260903194554 | 18 | 223 | 0.0 | 0.0 | 0.00 | 0.00 | 0.00 | 24 | 1003.4 |
| 20260903193050 | 18 | 208 | 1.6 | 0.0 | 0.00 | 0.00 | 0.00 | 22 | 1004.1 |
| 20260903191545 | 18 | 230 | 1.6 | 0.0 | 0.00 | 0.00 | 0.00 | 22 | 1004.2 |
| 20260903190049 | 18 | 208 | 0.0 | 0.0 | 0.00 | 0.00 | 0.00 | 21 | 1004.5 |
| 20260903184532 | 17 | 222 | 1.6 | 0.0 | 0.00 | 0.00 | 0.00 | 21 | 1005.3 |
| 20260903183028 | 17 | 206 | 1.6 | 0.0 | 0.00 | 0.00 | 0.00 | 20 | 1005.2 |
| 20260903181537 | 17 | 136 | 0.0 | 0.0 | 0.00 | 0.00 | 0.00 | 17 | 1005.4 |
| 20260903180019 | 17 | 141 | 0.0 | 0.0 | 0.00 | 0.00 | 0.00 | 18 | 1005.8 |
| 20260903174515 | 17 | 219 | 0.0 | 0.0 | 0.00 | 0.00 | 0.00 | 19 | 1005.8 |
| 20260903173010 | 16 | 176 | 0.0 | 0.0 | 0.00 | 0.00 | 0.00 | 16 | 1005.8 |
| 20260903171518 | 16 | 138 | 0.0 | 0.0 | 0.00 | 0.00 | 0.00 | 17 | 1005.7 |
| 20260903170003 | 16 | 157 | 0.0 | 0.0 | 0.00 | 0.00 | 0.00 | 18 | 1005.4 |
| 20260903164600 | 15 | 215 | 0.0 | 0.0 | 0.00 | 0.00 | 0.00 | 16 | 1005.4 |
| 20260903163108 | 15 | 141 | 0.0 | 0.0 | 0.00 | 0.00 | 0.00 | 15 | 1005.9 |
| 20260903161550 | 15 | 200 | 0.0 | 0.0 | 0.00 | 0.00 | 0.00 | 15 | 1005.9 |
| 20260903160044 | 15 | 154 | 0.0 | 0.0 | 0.00 | 0.00 | 0.00 | 16 | 1005.8 |
| 20260903154540 | 14 | 147 | 0.0 | 0.0 | 0.00 | 0.00 | 0.00 | 15 | 1006.4 |
| 20260903153035 | 13 | 136 | 0.0 | 0.0 | 0.00 | 0.00 | 0.00 | 17 | 1006.2 |
| 20260903151531 | 13 | 141 | 0.0 | 0.0 | 0.00 | 0.00 | 0.00 | 17 | 1006.8 |
| 20260903150036 | 12 | 150 | 0.0 | 0.0 | 0.00 | 0.00 | 0.00 | 19 | 1006.2 |
| 20260903144523 | 11 | 150 | 0.0 | 0.0 | 0.00 | 0.00 | 0.00 | 19 | 1006.3 |
| 20260903143018 | 11 | 140 | 0.0 | 0.0 | 0.00 | 0.00 | 0.00 | 20 | 1006.5 |
| 20260903141518 | 11 | 140 | 0.0 | 0.0 | 0.00 | 0.00 | 0.00 | 21 | 1006.4 |
| 20260903140018 | 11 | 140 | 0.0 | 0.0 | 0.00 | 0.00 | 0.00 | 19 | 1005.8 |
| 20260903134508 | 11 | 143 | 0.0 | 0.0 | 0.00 | 0.00 | 0.00 | 17 | 1005.7 |
| 20260903133002 | 11 | 143 | 0.0 | 0.0 | 0.00 | 0.00 | 0.00 | 14 | 1005.7 |
| 20260903131557 | 11 | 143 | 0.0 | 0.0 | 0.00 | 0.00 | 0.00 | 14 | 1005.7 |
| 20260903130052 | 11 | 143 | 0.0 | 0.0 | 0.00 | 0.00 | 0.00 | 11 | 1005.2 |
| 20260903124600 | 11 | 143 | 0.0 | 0.0 | 0.00 | 0.00 | 0.00 | 9 | 1004.8 |
| 20260903123044 | 11 | 143 | 0.0 | 0.0 | 0.00 | 0.00 | 0.00 | 7 | 1004.9 |
| 20260903121542 | 11 | 144 | 0.0 | 0.0 | 0.00 | 0.00 | 0.00 | 7 | 1004.9 |
| 20260903120040 | 11 | 144 | 0.0 | 0.0 | 0.00 | 0.00 | 0.00 | 7 | 1004.0 |
| 20260903114532 | 11 | 130 | 0.0 | 0.0 | 0.00 | 0.00 | 0.00 | 7 | 1004.0 |
| 20260903113026 | 11 | 130 | 0.0 | 0.0 | 0.00 | 0.00 | 0.00 | 6 | 1004.1 |
| 20260903111522 | 11 | 130 | 0.0 | 0.0 | 0.00 | 0.00 | 0.00 | 7 | 1004.3 |
| 20260903110017 | 11 | 130 | 0.0 | 0.0 | 0.00 | 0.00 | 0.00 | 8 | 1003.9 |
| 20260903104514 | 11 | 130 | 0.0 | 0.0 | 0.00 | 0.00 | 0.00 | 8 | 1004.1 |
| 20260903103009 | 11 | 130 | 0.0 | 0.0 | 0.00 | 0.00 | 0.00 | 8 | 1004.1 |
| 20260903101504 | 11 | 130 | 0.0 | 0.0 | 0.00 | 0.00 | 0.00 | 7 | 1004.1 |
| 20260903094600 | 11 | 130 | 0.0 | 0.0 | 0.00 | 0.00 | 0.00 | 7 | 1004.6 |
| 20260903093122 | 11 | 137 | 0.0 | 0.0 | 0.00 | 0.00 | 0.00 | 8 | 1004.6 |
| 20260903091553 | 11 | 138 | 0.0 | 0.0 | 0.00 | 0.00 | 0.00 | 8 | 1004.8 |
| 20260903090044 | 11 | 141 | 0.0 | 0.0 | 0.00 | 0.00 | 0.00 | 9 | 1005.2 |
| 20260903084539 | 11 | 141 | 0.0 | 0.0 | 0.00 | 0.00 | 0.00 | 10 | 1005.2 |
| 20260903083035 | 11 | 141 | 0.0 | 0.0 | 0.00 | 0.00 | 0.00 | 12 | 1004.7 |
| 20260903081536 | 11 | 141 | 0.0 | 0.0 | 0.00 | 0.00 | 0.00 | 11 | 1004.9 |
| 20260903080025 | 11 | 141 | 0.0 | 0.0 | 0.00 | 0.00 | 0.00 | 9 | 1004.9 |
| 20260903074525 | 11 | 141 | 0.0 | 0.0 | 0.00 | 0.00 | 0.00 | 10 | 1004.8 |
| 20260903073019 | 11 | 141 | 0.0 | 0.0 | 0.00 | 0.00 | 0.00 | 12 | 1005.1 |
| 20260903071517 | 11 | 141 | 0.0 | 0.0 | 0.00 | 0.00 | 0.00 | 13 | 1005.6 |
| 20260903070025 | 11 | 141 | 0.0 | 0.0 | 0.00 | 0.00 | 0.00 | 16 | 1005.9 |
| 20260903064515 | 11 | 137 | 0.0 | 0.0 | 0.00 | 0.00 | 0.00 | 25 | 1005.7 |
| 20260903063014 | 10 | 130 | 0.0 | 0.0 | 0.00 | 0.00 | 0.00 | 36 | 1005.4 |
| 20260903061515 | 10 | 130 | 0.0 | 0.0 | 0.00 | 0.00 | 0.00 | 24 | 1005.7 |
| 20260903060016 | 10 | 130 | 0.0 | 0.0 | 0.00 | 0.00 | 0.00 | 26 | 1006.2 |
| 20260903054514 | 11 | 130 | 0.0 | 0.0 | 0.00 | 0.00 | 0.00 | 43 | 1006.1 |
| 20260903053010 | 11 | 130 | 0.0 | 0.0 | 0.00 | 0.00 | 0.00 | 47 | 1005.9 |
| 20260903051510 | 11 | 130 | 0.0 | 0.0 | 0.00 | 0.00 | 0.00 | 32 | 1006.4 |
| 20260903050008 | 11 | 130 | 0.0 | 0.0 | 0.00 | 0.00 | 0.00 | 23 | 1007.0 |
| 20260903044509 | 11 | 128 | 0.0 | 0.0 | 0.00 | 0.00 | 0.00 | 24 | 1007.4 |
| 20260903043007 | 10 | 117 | 0.0 | 0.0 | 0.00 | 0.00 | 0.00 | 24 | 1007.5 |
| 20260903041517 | 11 | 117 | 0.0 | 0.0 | 0.00 | 0.00 | 0.00 | 27 | 1007.3 |
| 20260903040009 | 11 | 117 | 0.0 | 0.0 | 0.00 | 0.00 | 0.00 | 30 | 1007.1 |
| 20260903034513 | 12 | 117 | 0.0 | 0.0 | 0.00 | 0.00 | 0.00 | 36 | 1006.6 |
| 20260903033005 | 12 | 117 | 0.0 | 0.0 | 0.00 | 0.00 | 0.00 | 27 | 1006.3 |
| 20260903031505 | 12 | 202 | 0.0 | 0.0 | 0.00 | 0.00 | 0.00 | 27 | 1006.3 |
| 20260903030005 | 12 | 189 | 0.0 | 0.0 | 0.00 | 0.00 | 0.00 | 27 | 1006.7 |
| 20260903024503 | 12 | 160 | 0.0 | 0.0 | 0.00 | 0.00 | 0.00 | 27 | 1006.7 |
| 20260903023011 | 13 | 188 | 0.0 | 0.0 | 0.00 | 0.00 | 0.00 | 31 | 1006.6 |
| 20260903021505 | 13 | 182 | 0.0 | 0.0 | 0.00 | 0.00 | 0.00 | 27 | 1007.0 |
| 20260903020002 | 13 | 191 | 1.6 | 0.0 | 0.00 | 0.00 | 0.00 | 28 | 1007.7 |
| 20260903014504 | 14 | 195 | 1.6 | 0.0 | 0.00 | 0.00 | 0.00 | 29 | 1007.1 |